Theta_e
335 336 337 339 342 344 345 346 348 348 351 353 354 354 355 356 354 350 350 351 349 350 350 352 361 363 362 361 362 362 363 358 357
333 335 336 339 343 344 345 346 349 349 350 353 354 353 355 356 355 354 350 354 353 349 354 355 362 363 362 359 361 361 363 356 358
333 336 337 338 341 344 346 347 349 351 352 352 353 353 354 354 355 356 355 355 354 353 351 358 361 361 360 362 360 363 364 358 361
333 335 338 339 340 345 347 348 349 350 351 352 352 352 353 354 354 354 355 353 354 355 355 355 361 360 362 360 360 362 361 361 358
332 336 339 341 343 344 345 347 348 350 352 351 352 352 353 352 354 355 353 353 353 354 354 356 356 362 362 361 360 362 361 359 356
336 336 338 341 343 345 346 348 351 351 352 352 352 353 351 352 352 353 352 353 355 355 356 356 354 356 359 359 359 358 359 360 359
336 339 340 341 343 345 348 350 353 353 353 353 354 353 352 353 354 355 353 355 356 356 358 357 357 357 357 357 357 356 357 358 359
334 337 338 341 343 346 349 350 353 354 354 355 356 354 354 354 356 357 357 357 357 358 357 357 359 359 358 358 357 352 357 358 357
333 336 336 340 345 349 350 350 351 352 353 354 355 354 354 357 357 357 357 358 358 358 357 358 359 358 357 357 355 341 340 351 357
334 335 338 340 344 348 352 353 355 354 355 355 355 355 355 357 358 358 358 359 359 359 357 358 357 358 359 360 360 336 336 341 353
332 335 338 343 346 349 352 353 354 356 357 357 357 357 357 358 358 358 360 361 360 361 360 359 359 358 359 359 358 335 332 337 354
334 336 341 345 350 352 355 357 358 359 359 360 359 358 357 356 355 356 354 352 353 355 355 357 357 358 358 358 358 330 329 337 352
333 338 343 346 349 352 353 355 356 355 355 355 353 352 351 349 349 349 348 349 351 353 351 350 351 352 355 347 356 332 326 334 349
340 342 345 348 350 350 351 353 352 349 348 346 345 344 346 345 346 343 343 345 347 345 343 349 349 347 350 355 352 353 323 323 347
342 343 345 347 347 348 349 350 348 345 343 341 340 341 341 340 338 335 336 340 341 344 345 346 346 347 345 349 353 333 323 319 322
342 344 344 345 346 345 345 346 345 341 339 341 339 340 338 336 334 334 333 330 330 331 338 337 336 339 339 342 347 347 322 316 317
343 344 344 345 344 342 340 340 341 340 339 341 339 336 334 334 333 331 331 330 324 323 326 328 332 333 332 336 334 336 337 331 328
342 344 343 343 342 340 338 338 338 337 339 340 336 335 333 333 331 330 330 325 316 319 317 309 318 327 331 331 333 333 324 325 329
343 342 343 342 341 339 337 337 337 338 339 340 336 334 334 333 333 332 332 329 328 304 303 300 297 297 306 326 307 304 304 304 303
335 343 342 341 340 339 339 338 337 339 339 339 337 336 334 332 329 337 335 331 330 328 320 302 300 298 297 297 297 298 298 298 300
Wind_Speed
14 15 15 15 15 14 15 15 14 14 15 14 16 15 15 12 12 9 9 9 8 6 5 5 2 6 6 7 6 5 5 6 6
13 15 13 13 14 15 15 16 15 15 14 14 15 16 14 14 12 13 10 10 8 8 8 6 6 6 6 6 7 7 5 6 5
13 14 15 12 13 13 14 15 14 14 14 14 14 14 14 13 14 13 13 11 12 11 9 8 7 7 7 7 8 7 8 6 5
13 14 14 14 11 12 13 13 14 14 14 14 14 14 14 13 13 14 13 13 13 12 11 10 9 9 8 8 8 7 7 8 8
11 12 13 12 13 13 12 13 13 14 13 14 14 13 13 14 13 13 14 14 14 13 12 12 12 11 10 9 9 9 9 10 10
8 10 12 12 12 12 13 13 13 13 13 13 13 12 13 13 13 13 14 14 13 13 13 13 13 12 12 12 11 10 10 10 10
13 12 12 12 12 12 12 12 13 12 12 12 12 13 14 13 13 13 14 13 13 13 13 13 13 13 13 13 12 12 11 11 10
13 13 13 12 12 12 12 12 12 12 11 11 11 12 12 12 11 12 12 12 12 12 12 12 13 13 13 14 13 11 13 12 12
12 13 13 13 12 13 13 13 12 11 10 11 10 11 10 9 10 10 11 11 12 12 13 13 12 13 14 15 12 12 11 12 12
13 13 12 12 12 11 10 11 11 11 11 10 10 9 8 9 9 9 10 10 10 11 13 13 14 14 14 14 13 11 13 14 12
10 8 10 9 9 9 9 10 10 9 10 10 9 8 8 8 8 8 8 9 10 10 10 12 13 13 15 14 13 9 11 10 14
9 7 6 8 8 10 10 10 10 10 10 9 9 8 6 6 5 5 6 8 9 9 9 10 9 10 11 14 13 9 10 11 13
5 5 9 11 11 11 10 9 10 9 9 8 7 5 4 4 4 5 6 7 7 6 7 8 8 10 9 11 13 10 14 13 11
7 9 11 12 11 10 10 9 9 8 7 6 5 4 0 2 2 5 7 9 9 7 8 9 8 9 9 11 10 10 14 15 13
12 12 13 12 11 11 10 9 8 7 7 5 4 2 1 2 4 4 4 7 8 9 9 10 10 11 10 11 10 8 11 14 18
12 13 11 11 12 11 9 7 6 8 6 5 5 3 4 4 4 5 5 5 6 7 7 6 5 6 6 7 5 6 8 11 12
11 11 11 11 12 11 9 7 7 8 7 6 6 6 5 5 5 5 6 4 4 4 4 4 5 4 4 2 1 2 2 4 5
10 10 10 10 9 9 9 8 8 8 7 7 7 6 6 6 5 5 4 5 5 5 2 3 5 5 4 4 4 4 5 5 4
10 11 10 9 8 9 10 9 9 9 8 6 6 6 5 3 4 4 3 3 3 4 2 4 3 5 3 2 4 7 7 7 8
8 9 9 9 9 9 10 9 9 8 7 7 6 3 4 4 4 1 1 2 4 6 2 5 9 10 11 9 8 4 4 2 2
Wind_Direction
169 177 174 179 177 183 183 184 186 189 185 194 193 197 203 200 213 216 216 212 243 237 247 240 214 244 216 220 224 220 212 218 229
164 170 180 186 175 178 186 186 188 190 188 196 198 199 201 203 206 227 222 228 217 229 244 256 235 238 203 221 223 221 213 244 227
164 172 181 191 184 184 184 184 186 195 192 195 200 205 202 206 210 214 224 225 227 242 247 246 248 256 246 221 226 221 219 252 230
163 171 180 182 195 185 180 184 184 191 195 194 199 203 207 211 212 215 221 229 227 233 235 238 235 235 240 252 239 220 229 225 233
156 169 172 179 179 179 183 186 187 192 195 200 205 203 205 209 214 221 224 227 232 232 232 230 235 234 238 236 249 251 241 239 248
169 163 166 176 177 178 185 184 191 197 198 202 203 202 208 212 213 218 225 228 229 231 229 232 232 230 234 235 239 246 245 240 234
178 180 169 172 177 181 186 186 189 194 199 201 204 205 209 214 214 218 226 228 228 228 228 230 230 230 231 234 236 235 235 230 237
194 180 180 182 185 182 185 185 188 192 195 196 198 204 211 217 221 226 229 235 235 234 232 231 231 231 228 230 227 227 222 229 230
190 193 196 189 187 178 182 182 187 186 189 192 193 199 207 208 215 223 228 232 238 239 235 232 236 233 233 232 230 211 217 224 221
200 204 191 187 187 179 176 175 175 178 180 180 185 194 196 202 203 211 224 231 233 235 236 238 235 237 238 240 237 211 207 210 232
212 206 177 178 177 158 160 157 159 155 159 170 171 177 188 186 199 211 220 231 239 242 239 239 239 240 241 248 241 198 208 208 228
234 219 171 168 159 146 145 145 144 145 154 158 155 154 169 155 180 217 230 241 249 255 251 247 238 243 244 245 246 175 199 199 232
196 166 150 148 144 145 141 141 139 143 145 147 142 140 168 173 207 251 261 263 266 264 254 258 269 262 249 237 247 213 197 211 231
140 141 146 137 142 137 132 134 141 140 143 124 94 91 13 313 309 295 281 284 274 274 279 274 255 251 257 256 253 245 188 203 237
143 138 141 135 135 134 134 138 138 135 114 101 91 77 50 39 10 339 333 297 283 274 263 266 271 267 259 258 258 234 191 202 219
147 143 138 136 132 130 127 123 129 124 122 118 109 74 52 34 15 6 353 323 319 315 291 272 263 264 245 251 241 234 213 199 212
146 142 141 136 138 137 129 127 117 117 130 127 120 94 77 66 51 12 11 5 340 311 308 310 288 278 270 264 250 236 178 215 207
151 145 142 144 144 141 137 137 135 133 138 143 126 110 96 86 82 53 35 48 12 344 11 311 302 301 298 282 247 232 228 217 204
156 153 149 147 151 150 154 160 153 151 152 147 144 151 151 106 122 122 81 27 34 110 117 12 340 310 286 258 313 319 289 251 248
149 153 156 157 165 155 167 164 159 162 158 167 172 156 155 145 264 103 85 8 360 5 110 102 43 20 19 19 7 340 291 245 148